Weather reports worldwide

Advertisment
Aboyne, United Kingdom (3080): temperature & dewpoint: 19.02.2018 08:00:00 - 25.02.2018 08:00:00 (GMT)Aboyne, United Kingdom (3080): temperature -20cm & temperature -100cm: 19.02.2018 08:00:00 - 25.02.2018 08:00:00 (GMT)Aboyne, United Kingdom (3080): wind speed & gusts: 19.02.2018 08:00:00 - 25.02.2018 08:00:00 (GMT)Aboyne, United Kingdom (3080): wind direction: 19.02.2018 08:00:00 - 25.02.2018 08:00:00 (GMT)Aboyne, United Kingdom (3080): reduced air pressure: 19.02.2018 08:00:00 - 25.02.2018 08:00:00 (GMT)Aboyne, United Kingdom (3080): visibility: 19.02.2018 08:00:00 - 25.02.2018 08:00:00 (GMT)Aboyne, United Kingdom (3080): precipitation: 19.02.2018 08:00:00 - 25.02.2018 08:00:00 (GMT)
Date & Time tt [°C] td [°C] tt -20cm [°C] tt -100cm [°C] ff [km/h] ff [kn] fx [km/h] fx [kn] dd ppp [hPa] vv [km] rr [mm]
25.02.2018 08:00:00 - - - - - - - - - - - -
25.02.2018 07:00:00 -0,6 -2,4 - - 8 4 - - ESE 1031,7 19 0,0
25.02.2018 06:00:00 1,9 -1,5 - - 11 6 - - SSE 1031,3 25 0,0
25.02.2018 05:00:00 2,1 -1,6 - - 15 8 - - SSE 1031,0 22 0,0
25.02.2018 04:00:00 2,0 -1,6 - - 16 9 - - SSE 1031,1 24 0,0
25.02.2018 03:00:00 2,0 -1,4 - - 11 6 - - SSE 1031,3 23 0,0
25.02.2018 02:00:00 2,2 -0,9 - - 9 5 - - SE 1031,3 21 0,0
25.02.2018 01:00:00 2,1 -1,1 - - 13 7 - - SE 1031,1 22 0,0
25.02.2018 00:00:00 2,3 -0,6 - - 13 7 - - SE 1030,8 21 0,0
24.02.2018 23:00:00 2,5 -0,6 - - 13 7 - - SE 1030,8 18 0,0
24.02.2018 22:00:00 2,8 -0,3 - - 11 6 - - SSE 1030,1 16 0,0
24.02.2018 21:00:00 2,9 -0,3 - - 11 6 - - SSE 1029,7 16 0,0
24.02.2018 20:00:00 3,0 -0,2 - - 13 7 - - SSE 1029,4 16 0,0
24.02.2018 19:00:00 3,1 -0,3 - - 11 6 - - SSE 1029,1 16 0,0
24.02.2018 18:00:00 3,1 -0,7 - - 11 6 - - SSE 1028,5 16 0,0
24.02.2018 17:00:00 3,4 -1,2 - - 15 8 - - SSE 1027,9 18 0,0
24.02.2018 16:00:00 3,8 -1,7 - - 16 9 - - SSE 1027,5 22 0,0
24.02.2018 15:00:00 4,3 -2,4 - - 21 11 - - SSE 1027,3 21 0,0
24.02.2018 14:00:00 5,0 -1,6 - - 21 11 - - SSE 1026,8 24 0,0
24.02.2018 13:00:00 5,4 -0,6 - - 22 12 - - SSE 1026,8 15 0,0
24.02.2018 12:00:00 4,7 -1,2 - - 26 14 46 25 SE 1026,8 17 0,0
24.02.2018 11:00:00 4,8 -0,6 - - 18 10 - - SSE 1026,5 19 0,0
24.02.2018 10:00:00 3,6 -0,5 - - 15 8 - - SE 1026,0 17 0,0
24.02.2018 09:00:00 3,2 -0,7 2,0 2,7 13 7 - - ESE 1025,7 20 0,0
24.02.2018 08:00:00 2,1 -1,2 - - 13 7 - - ESE 1025,3 17 0,0
24.02.2018 07:00:00 2,0 -1,0 - - 13 7 - - ESE 1024,6 19 0,0
24.02.2018 06:00:00 2,1 -0,8 - - 9 5 - - E 1023,7 21 0,0
24.02.2018 05:00:00 1,9 -1,1 - - 11 6 - - ESE 1023,2 23 0,0
24.02.2018 04:00:00 2,0 -1,4 - - 11 6 - - SE 1023,0 24 0,0
24.02.2018 03:00:00 2,3 -1,7 - - 16 9 - - SE 1022,9 27 0,0
24.02.2018 02:00:00 2,5 -1,2 - - 15 8 - - ESE 1022,7 35 0,0
24.02.2018 01:00:00 2,5 -1,3 - - 13 7 - - ESE 1022,8 29 0,0
24.02.2018 00:00:00 2,5 -1,8 - - 18 10 - - SSE 1022,7 35 0,0
23.02.2018 23:00:00 2,7 -1,2 - - 16 9 - - SE 1022,3 35 0,0
23.02.2018 22:00:00 2,7 -0,8 - - 16 9 - - SSE 1022,3 27 0,0
23.02.2018 21:00:00 2,9 -0,1 - - 16 9 - - SSE 1022,1 29 0,0
23.02.2018 20:00:00 2,6 0,1 - - 15 8 - - SE 1022,0 25 0,0
23.02.2018 19:00:00 2,4 -0,5 - - 16 9 - - SE 1022,2 24 0,0
23.02.2018 18:00:00 2,7 -1,1 - - 15 8 - - SE 1022,0 24 0,0
23.02.2018 17:00:00 2,5 -1,4 - - 21 11 - - SSE 1021,7 25 0,0
23.02.2018 16:00:00 3,6 -1,6 - - 22 12 - - SSE 1021,8 30 0,0
23.02.2018 15:00:00 3,6 -2,1 - - 13 7 - - SSE 1021,7 23 0,0
23.02.2018 14:00:00 3,6 -2,3 - - 15 8 - - S 1021,7 19 0,0
23.02.2018 13:00:00 3,9 -3,7 - - 15 8 - - S 1021,9 25 0,0
23.02.2018 12:00:00 3,2 -3,2 - - 13 7 - - S 1022,2 15 0,0
23.02.2018 11:00:00 2,5 -3,4 - - 13 7 - - S 1022,5 15 0,0
23.02.2018 10:00:00 1,3 -2,7 - - 13 7 - - SSW 1022,5 13 0,0
23.02.2018 09:00:00 0,6 -2,7 1,9 2,9 9 5 - - SE 1022,7 12 0,0
23.02.2018 08:00:00 0,1 -3,1 - - 11 6 - - SW 1022,0 11 0,0
23.02.2018 07:00:00 0,4 -2,9 - - 13 7 - - SSW 1021,8 11 0,0
23.02.2018 06:00:00 -1,6 -2,6 - - 5 3 - - E 1022,1 9 0,0
23.02.2018 05:00:00 -2,2 -2,7 - - 5 3 - - E 1022,1 5 0,0
23.02.2018 04:00:00 -1,6 -2,7 - - 4 2 - - ESE 1022,1 9 0,0
23.02.2018 03:00:00 -0,7 -2,0 - - 4 2 - - WSW 1022,2 11 0,0
23.02.2018 02:00:00 0,5 -1,7 - - 8 4 - - E 1022,4 13 0,0
23.02.2018 01:00:00 1,1 -1,3 - - 5 3 - - E 1022,1 16 0,0
23.02.2018 00:00:00 0,8 -1,2 - - 4 2 - - SSE 1022,2 14 0,0
22.02.2018 23:00:00 0,4 -1,4 - - 8 4 - - ESE 1022,3 13 0,0
22.02.2018 22:00:00 2,1 -0,4 - - 5 3 - - ESE 1022,3 17 0,0
22.02.2018 21:00:00 2,1 -0,6 - - 9 5 - - ESE 1022,3 22 0,0
22.02.2018 20:00:00 2,7 0,0 - - 8 4 - - ESE 1022,5 30 0,0
22.02.2018 19:00:00 2,6 0,0 - - 9 5 - - SE 1022,3 30 0,0
22.02.2018 18:00:00 3,7 0,6 - - 8 4 - - SE 1022,3 30 0,0
22.02.2018 17:00:00 4,1 0,6 - - 9 5 - - SSE 1022,1 27 0,0
22.02.2018 16:00:00 4,8 0,7 - - 9 5 - - SSE 1022,2 35 0,0
22.02.2018 15:00:00 5,4 0,0 - - 9 5 - - S 1022,3 23 0,0
22.02.2018 14:00:00 5,7 -0,5 - - 21 11 - - S 1022,6 26 0,0
22.02.2018 13:00:00 6,3 -0,2 - - 18 10 - - S 1023,0 29 0,0
22.02.2018 12:00:00 5,6 0,2 - - 15 8 - - S 1023,3 27 0,0
22.02.2018 11:00:00 5,0 0,5 - - 11 6 - - S 1023,7 27 0,2
22.02.2018 10:00:00 2,6 0,0 - - 11 6 - - S 1024,6 17 0,0
22.02.2018 09:00:00 1,3 0,5 2,2 2,9 5 3 - - ESE 1025,0 23 0,0
22.02.2018 08:00:00 -3,3 -3,3 - - 4 2 - - W 1025,6 15 0,0
22.02.2018 07:00:00 -3,5 -3,7 - - 2 1 - - SW 1025,8 10 0,0
22.02.2018 06:00:00 -3,0 -3,2 - - 0 0 - - N 1025,8 3,5 0,0
22.02.2018 05:00:00 -2,7 -3,4 - - 8 4 - - ESE 1025,7 10 0,0
22.02.2018 04:00:00 0,3 -1,0 - - 8 4 - - SSE 1025,9 15 0,0
22.02.2018 03:00:00 -0,1 -0,3 - - 8 4 - - SSW 1026,3 17 0,0
22.02.2018 02:00:00 -2,7 -2,7 - - 5 3 - - SW 1027,2 14 0,0
22.02.2018 01:00:00 -0,1 -0,1 - - 8 4 - - S 1027,5 17 0,0
22.02.2018 00:00:00 -5,1 -5,1 - - 5 3 - - ESE 1028,3 7 0,0
21.02.2018 23:00:00 -4,1 -4,1 - - 2 1 - - E 1028,1 9 0,0
21.02.2018 22:00:00 -3,8 -4,0 - - 5 3 - - E 1028,4 11 0,0
21.02.2018 21:00:00 -2,7 -2,8 - - 4 2 - - WSW 1028,4 12 0,0
21.02.2018 20:00:00 -2,0 -2,7 - - 2 1 - - SW 1028,3 14 0,0
21.02.2018 19:00:00 -0,2 -2,2 - - 2 1 - - W 1028,2 17 0,0
21.02.2018 18:00:00 2,9 0,0 - - 13 7 - - SSW 1027,7 17 0,0
21.02.2018 17:00:00 5,2 -1,3 - - 5 3 - - S 1027,5 20 0,0
21.02.2018 16:00:00 6,0 -1,4 - - 11 6 - - SW 1027,6 20 0,0
21.02.2018 15:00:00 7,4 -0,2 - - 9 5 - - SW 1027,7 23 0,0
21.02.2018 14:00:00 7,2 1,2 - - 5 3 - - E 1028,1 30 0,0
21.02.2018 13:00:00 5,1 0,4 - - 2 1 - - WNW 1028,9 26 0,0
21.02.2018 12:00:00 3,8 -0,4 - - 5 3 - - W 1029,6 25 0,0
21.02.2018 11:00:00 3,6 0,0 - - 9 5 - - W 1030,0 17 0,2
21.02.2018 10:00:00 1,2 -0,4 - - 11 6 - - W 1030,5 19 0,0
21.02.2018 09:00:00 -0,8 -1,4 2,5 2,9 9 5 - - WNW 1030,8 17 0,0
21.02.2018 08:00:00 -2,6 -2,9 - - 9 5 - - WNW 1030,7 17 0,0
21.02.2018 07:00:00 -3,0 -3,3 - - 9 5 - - WNW 1030,7 14 0,0
21.02.2018 06:00:00 -3,0 -3,2 - - 9 5 - - WNW 1030,7 12 0,0
21.02.2018 05:00:00 -2,4 -2,5 - - 11 6 - - NW 1030,5 12 0,0
21.02.2018 04:00:00 -2,1 -2,1 - - 5 3 - - WSW 1030,7 12 0,0
21.02.2018 03:00:00 -2,6 -2,8 - - 4 2 - - W 1031,2 12 0,0
21.02.2018 02:00:00 -2,4 -2,4 - - 5 3 - - W 1031,2 12 0,0
21.02.2018 01:00:00 -1,3 -1,3 - - 8 4 - - NNW 1031,0 13 0,0
21.02.2018 00:00:00 -2,6 -2,6 - - 8 4 - - W 1031,0 11 0,0
20.02.2018 23:00:00 -2,5 -2,5 - - 4 2 - - W 1030,6 10 0,0
20.02.2018 22:00:00 -1,5 -1,5 - - 4 2 - - WSW 1030,0 10 0,0
20.02.2018 21:00:00 -0,9 -1,0 - - 4 2 - - ESE 1029,7 12 0,0
20.02.2018 20:00:00 0,4 0,1 - - 4 2 - - W 1029,4 15 0,0
20.02.2018 19:00:00 1,4 0,8 - - 8 4 - - WNW 1028,8 17 0,0
20.02.2018 18:00:00 2,0 -0,1 - - 5 3 - - NW 1028,1 21 0,0
20.02.2018 17:00:00 5,1 1,8 - - 15 8 - - WSW 1027,4 16 0,0
20.02.2018 16:00:00 5,5 2,3 - - 26 14 - - NW 1026,9 22 0,0
20.02.2018 15:00:00 6,2 2,9 - - 13 7 - - W 1026,3 28 0,0
20.02.2018 14:00:00 7,6 2,2 - - 13 7 - - WNW 1025,6 21 0,0
20.02.2018 13:00:00 7,1 2,3 - - 18 10 - - NNW 1025,0 26 0,0
20.02.2018 12:00:00 7,6 3,5 - - 18 10 - - NW 1024,5 27 0,0
20.02.2018 11:00:00 5,8 3,0 - - 21 11 - - WNW 1024,0 21 0,0
20.02.2018 10:00:00 5,7 3,2 - - 13 7 - - WNW 1023,4 27 0,0
20.02.2018 09:00:00 5,7 3,8 2,7 2,7 11 6 - - WNW 1022,6 30 0,0
20.02.2018 08:00:00 4,5 2,9 - - 15 8 - - W 1021,9 35 0,0
20.02.2018 07:00:00 4,9 2,8 - - 22 12 - - W 1020,9 27 0,0
20.02.2018 06:00:00 4,7 3,0 - - 21 11 - - W 1020,2 25 0,0
20.02.2018 05:00:00 4,0 3,1 - - 13 7 - - W 1019,5 25 0,0
20.02.2018 04:00:00 2,6 2,5 - - 8 4 - - WNW 1018,9 35 0,0
20.02.2018 03:00:00 4,6 4,0 - - 13 7 - - W 1018,7 50 0,2
20.02.2018 02:00:00 4,5 4,2 - - 9 5 - - W 1018,0 35 2,2
20.02.2018 01:00:00 5,2 5,0 - - 16 9 - - W 1017,8 10 1,0
20.02.2018 00:00:00 4,7 4,7 - - 8 4 - - W 1017,2 6 0,0
19.02.2018 23:00:00 4,5 4,5 - - 4 2 - - WSW 1016,5 0,1 0,0
19.02.2018 22:00:00 5,0 5,0 - - 4 2 - - W 1016,5 0,1 0,2
19.02.2018 21:00:00 5,4 5,4 - - 4 2 - - ESE 1016,5 0,2 0,0
19.02.2018 20:00:00 6,0 6,0 - - 0 0 - - N 1017,0 0,1 0,0
19.02.2018 19:00:00 6,2 6,2 - - 4 2 - - E 1016,4 0,2 0,0
19.02.2018 18:00:00 6,5 6,5 - - 4 2 - - E 1016,3 6 0,0
19.02.2018 17:00:00 6,6 6,6 - - 9 5 - - E 1016,3 2,3 0,0
19.02.2018 16:00:00 6,9 6,9 - - 8 4 - - E 1016,1 12 0,0
19.02.2018 15:00:00 6,7 6,7 - - 5 3 - - E 1016,1 17 0,0
19.02.2018 14:00:00 6,3 6,3 - - 5 3 - - E 1016,1 35 0,0
19.02.2018 13:00:00 6,1 6,1 - - 8 4 - - E 1015,8 8 0,0
19.02.2018 12:00:00 6,0 6,0 - - 8 4 - - E 1015,7 6 0,0
19.02.2018 11:00:00 5,6 5,6 - - 4 2 - - WNW 1015,5 3,3 0,4
19.02.2018 10:00:00 4,6 4,6 - - 2 1 - - W 1015,5 3,3 0,0
19.02.2018 09:00:00 4,2 4,2 2,0 2,7 2 1 - - N 1015,0 2,0 0,2
19.02.2018 08:00:00 3,6 3,6 - - 2 1 - - ESE 1014,8 0,5 0,4

tt = temperature
td = dewpoint
tt -20cm = temperature -20cm
tt -100cm = temperature -100cm
ff = wind speed
fx = gusts
dd = wind direction
ppp = reduced air pressure
vv = visibility
rr = precipitation

Next stations